Time,TemperatureF,DewpointF,PressureIn,WindDirection,WindDirectionDegrees,WindSpeedMPH,WindSpeedGustMPH,Humidity,HourlyPrecipIn,Conditions,Clouds,dailyrainin,SoftwareType,DateUTC
2013-10-11 00:02:00,34.0,30.0,-100.00,NE,40,1.0,3.0,86,0.00,,,-99.99,,2013-10-11 07:02:00,
2013-10-11 00:42:00,33.0,30.0,-100.00,NE,47,1.0,4.0,89,0.00,,,-99.99,,2013-10-11 07:42:00,
2013-10-11 00:52:00,33.0,30.0,-100.00,NNE,32,1.0,3.0,89,0.00,,,-99.99,,2013-10-11 07:52:00,
2013-10-11 01:11:00,33.0,30.0,-100.00,NE,42,0.0,2.0,88,0.00,,,-99.99,,2013-10-11 08:11:00,
2013-10-11 01:21:00,33.0,30.0,-100.00,NE,42,0.0,2.0,88,0.00,,,-99.99,,2013-10-11 08:21:00,
2013-10-11 01:42:00,33.0,30.0,-100.00,NE,38,3.0,5.0,87,0.00,,,-99.99,,2013-10-11 08:42:00,
2013-10-11 01:52:00,33.0,30.0,-100.00,NE,45,3.0,5.0,88,0.00,,,-99.99,,2013-10-11 08:52:00,
2013-10-11 02:01:00,33.0,30.0,-100.00,NE,45,3.0,5.0,88,0.00,,,-99.99,,2013-10-11 09:01:00,
2013-10-11 02:22:00,32.0,29.0,-100.00,SE,128,0.0,1.0,88,0.00,,,-99.99,,2013-10-11 09:22:00,
2013-10-11 02:42:00,32.0,29.0,-100.00,NE,42,1.0,3.0,89,0.00,,,-99.99,,2013-10-11 09:42:00,
2013-10-11 02:54:00,31.0,28.0,-100.00,NNE,28,2.0,4.0,90,0.00,,,-99.99,,2013-10-11 09:54:00,
2013-10-11 03:03:00,31.0,28.0,-100.00,NNE,28,2.0,4.0,90,0.00,,,-99.99,,2013-10-11 10:03:00,
2013-10-11 03:42:00,31.0,29.0,-100.00,ENE,69,1.0,3.0,91,0.00,,,-99.99,,2013-10-11 10:42:00,
2013-10-11 04:12:00,31.0,29.0,-100.00,NE,38,1.0,3.0,92,0.00,,,-99.99,,2013-10-11 11:12:00,
2013-10-11 04:22:00,31.0,29.0,-100.00,NE,44,2.0,4.0,92,0.00,,,-99.99,,2013-10-11 11:22:00,
2013-10-11 04:42:00,31.0,29.0,-100.00,ENE,64,0.0,2.0,92,0.00,,,-99.99,,2013-10-11 11:42:00,
2013-10-11 05:11:00,30.0,28.0,-100.00,NNE,21,0.0,2.0,92,0.00,,,-99.99,,2013-10-11 12:11:00,
2013-10-11 05:22:00,30.0,28.0,-100.00,NNE,21,2.0,3.0,93,0.00,,,-99.99,,2013-10-11 12:22:00,
2013-10-11 05:42:00,30.0,28.0,-100.00,NNE,23,1.0,3.0,94,0.00,,,-99.99,,2013-10-11 12:42:00,
2013-10-11 05:52:00,30.0,28.0,-100.00,NNE,23,1.0,3.0,94,0.00,,,-99.99,,2013-10-11 12:52:00,
2013-10-11 06:11:00,30.0,28.0,-100.00,NE,45,2.0,4.0,93,0.00,,,-99.99,,2013-10-11 13:11:00,
2013-10-11 06:21:00,30.0,28.0,-100.00,North,-999,0.0,0.0,92,0.00,,,-99.99,,2013-10-11 13:21:00,
2013-10-11 06:42:00,30.0,28.0,-100.00,NE,34,1.0,3.0,92,0.00,,,-99.99,,2013-10-11 13:42:00,
2013-10-11 07:11:00,30.0,28.0,-100.00,NE,51,2.0,5.0,92,0.00,,,-99.99,,2013-10-11 14:11:00,
2013-10-11 07:22:00,30.0,28.0,-100.00,NE,51,2.0,5.0,92,0.00,,,-99.99,,2013-10-11 14:22:00,
2013-10-11 07:42:00,29.0,27.0,-100.00,NE,34,0.0,2.0,91,0.00,,,-99.99,,2013-10-11 14:42:00,
2013-10-11 07:52:00,29.0,27.0,-100.00,NNE,31,3.0,4.0,92,0.00,,,-99.99,,2013-10-11 14:52:00,
2013-10-11 08:11:00,30.0,28.0,-100.00,NE,51,1.0,4.0,92,0.00,,,-99.99,,2013-10-11 15:11:00,
2013-10-11 08:22:00,30.0,28.0,-100.00,NE,51,1.0,4.0,92,0.00,,,-99.99,,2013-10-11 15:22:00,
2013-10-11 08:44:00,31.0,29.0,-100.00,NNE,30,0.0,2.0,91,0.00,,,-99.99,,2013-10-11 15:44:00,
2013-10-11 08:54:00,32.0,29.0,-100.00,NE,40,0.0,2.0,89,0.00,,,-99.99,,2013-10-11 15:54:00,
2013-10-11 09:13:00,36.0,30.0,-100.00,NE,47,0.0,3.0,80,0.00,,,-99.99,,2013-10-11 16:13:00,
2013-10-11 09:43:00,41.0,32.0,-100.00,NE,52,0.0,3.0,71,0.00,,,-99.99,,2013-10-11 16:43:00,
2013-10-11 10:21:00,45.0,29.0,-100.00,SW,215,1.0,5.0,54,0.00,,,-99.99,,2013-10-11 17:21:00,
2013-10-11 10:42:00,47.0,29.0,-100.00,WSW,239,1.0,3.0,50,0.00,,,-99.99,,2013-10-11 17:42:00,
2013-10-11 11:12:00,48.0,29.0,-100.00,SW,232,3.0,5.0,48,0.00,,,-99.99,,2013-10-11 18:12:00,
2013-10-11 11:21:00,50.0,29.0,-100.00,South,189,2.0,5.0,44,0.00,,,-99.99,,2013-10-11 18:21:00,
2013-10-11 11:42:00,50.0,25.0,-100.00,SW,217,3.0,7.0,37,0.00,,,-99.99,,2013-10-11 18:42:00,
2013-10-11 12:11:00,51.0,24.0,-100.00,SW,227,4.0,8.0,34,0.00,,,-99.99,,2013-10-11 19:11:00,
2013-10-11 12:21:00,52.0,24.0,-100.00,West,260,6.0,10.0,33,0.00,,,-99.99,,2013-10-11 19:21:00,
2013-10-11 12:32:00,52.0,24.0,-100.00,West,260,6.0,10.0,33,0.00,,,-99.99,,2013-10-11 19:32:00,
2013-10-11 13:11:00,53.0,21.0,-100.00,WSW,258,5.0,10.0,28,0.00,,,-99.99,,2013-10-11 20:11:00,
2013-10-11 13:22:00,54.0,22.0,-100.00,WSW,250,6.0,11.0,29,0.00,,,-99.99,,2013-10-11 20:22:00,
2013-10-11 13:42:00,54.0,22.0,-100.00,WSW,253,5.0,10.0,28,0.00,,,-99.99,,2013-10-11 20:42:00,
2013-10-11 14:12:00,55.0,22.0,-100.00,WSW,244,7.0,13.0,27,0.00,,,-99.99,,2013-10-11 21:12:00,
2013-10-11 14:22:00,55.0,22.0,-100.00,WSW,244,7.0,13.0,27,0.00,,,-99.99,,2013-10-11 21:22:00,
2013-10-11 14:43:00,55.0,23.0,-100.00,WSW,248,6.0,12.0,28,0.00,,,-99.99,,2013-10-11 21:43:00,
2013-10-11 14:54:00,56.0,23.0,-100.00,WSW,246,6.0,11.0,27,0.00,,,-99.99,,2013-10-11 21:54:00,
2013-10-11 15:13:00,56.0,23.0,-100.00,West,264,7.0,13.0,27,0.00,,,-99.99,,2013-10-11 22:13:00,
2013-10-11 15:42:00,55.0,27.0,-100.00,West,260,9.0,14.0,34,0.00,,,-99.99,,2013-10-11 22:42:00,
2013-10-11 15:43:00,56.0,24.0,-100.00,WSW,250,8.0,13.0,29,0.00,,,-99.99,,2013-10-11 22:43:00,
2013-10-11 15:54:00,56.0,25.0,-100.00,WSW,254,8.0,13.0,30,0.00,,,-99.99,,2013-10-11 22:54:00,
2013-10-11 16:12:00,55.0,27.0,-100.00,West,260,9.0,14.0,34,0.00,,,-99.99,,2013-10-11 23:12:00,
2013-10-11 16:22:00,55.0,27.0,-100.00,West,260,9.0,14.0,34,0.00,,,-99.99,,2013-10-11 23:22:00,
2013-10-11 16:33:00,55.0,27.0,-100.00,West,260,9.0,14.0,34,0.00,,,-99.99,,2013-10-11 23:33:00,
2013-10-11 16:53:00,56.0,27.0,-100.00,WSW,250,9.0,17.0,33,0.00,,,-99.99,,2013-10-11 23:53:00,
2013-10-11 17:02:00,56.0,27.0,-100.00,WSW,250,9.0,17.0,33,0.00,,,-99.99,,2013-10-12 00:02:00,
2013-10-11 17:22:00,56.0,33.0,-100.00,WSW,250,8.0,17.0,41,0.00,,,-99.99,,2013-10-12 00:22:00,
2013-10-11 17:32:00,56.0,33.0,-100.00,WSW,250,8.0,17.0,41,0.00,,,-99.99,,2013-10-12 00:32:00,
2013-10-11 18:11:00,54.0,35.0,-100.00,WSW,254,9.0,17.0,48,0.00,,,-99.99,,2013-10-12 01:11:00,
2013-10-11 18:22:00,53.0,33.0,-100.00,WSW,254,5.0,9.0,47,0.00,,,-99.99,,2013-10-12 01:22:00,
2013-10-11 18:42:00,52.0,34.0,-100.00,West,278,3.0,8.0,51,0.00,,,-99.99,,2013-10-12 01:42:00,
2013-10-11 19:12:00,52.0,31.0,-100.00,SE,131,2.0,7.0,45,0.00,,,-99.99,,2013-10-12 02:12:00,
2013-10-11 19:23:00,51.0,32.0,-100.00,SSE,154,3.0,8.0,48,0.00,,,-99.99,,2013-10-12 02:23:00,
2013-10-11 19:42:00,50.0,32.0,-100.00,SSE,148,2.0,8.0,50,0.00,,,-99.99,,2013-10-12 02:42:00,
2013-10-11 20:12:00,49.0,32.0,-100.00,SE,140,3.0,7.0,52,0.00,,,-99.99,,2013-10-12 03:12:00,
2013-10-11 20:23:00,48.0,32.0,-100.00,South,171,2.0,7.0,53,0.00,,,-99.99,,2013-10-12 03:23:00,
2013-10-11 20:44:00,47.0,32.0,-100.00,NNE,17,1.0,8.0,56,0.00,,,-99.99,,2013-10-12 03:44:00,
2013-10-11 20:54:00,47.0,32.0,-100.00,NNE,17,1.0,8.0,56,0.00,,,-99.99,,2013-10-12 03:54:00,
2013-10-11 21:04:00,47.0,32.0,-100.00,NNE,17,1.0,8.0,56,0.00,,,-99.99,,2013-10-12 04:04:00,
2013-10-11 21:44:00,44.0,32.0,-100.00,North,357,1.0,3.0,63,0.00,,,-99.99,,2013-10-12 04:44:00,
2013-10-11 21:54:00,43.0,32.0,-100.00,NNE,16,1.0,3.0,65,0.00,,,-99.99,,2013-10-12 04:54:00,
2013-10-11 22:03:00,43.0,32.0,-100.00,NNE,16,1.0,3.0,65,0.00,,,-99.99,,2013-10-12 05:03:00,
2013-10-11 22:43:00,41.0,32.0,-100.00,NE,40,2.0,5.0,69,0.00,,,-99.99,,2013-10-12 05:43:00,
2013-10-11 22:52:00,40.0,32.0,-100.00,North,10,3.0,5.0,72,0.00,,,-99.99,,2013-10-12 05:52:00,
2013-10-11 23:02:00,40.0,32.0,-100.00,North,10,3.0,5.0,72,0.00,,,-99.99,,2013-10-12 06:02:00,
2013-10-11 23:22:00,38.0,30.0,-100.00,NE,40,2.0,4.0,74,0.00,,,-99.99,,2013-10-12 06:22:00,
2013-10-11 23:42:00,37.0,29.0,-100.00,NE,42,2.0,4.0,74,0.00,,,-99.99,,2013-10-12 06:42:00,
2013-10-11 23:52:00,36.0,29.0,-100.00,NE,35,2.0,4.0,76,0.00,,,-99.99,,2013-10-12 06:52:00,